Location: Joplin, MO
(37.0842°N, 94.5133°W)
Time: 19:48:26
(UTC+02:00)

Courier 1B Rocket - Pass Details

Date: 03 April 2023
Orbit: 920 x 1202 km, 28.2° (Epoch: 08 June)

Event Time Altitude Azimuth Distance (km) Brightness Sun altitude
Rises 06:08:38 0° 263° (W) 3,886 8.6 -37.6°
Reaches altitude 10° 06:12:24 10° 246° (WSW) 2,869 7.6 -38.1°
Enters shadow 06:13:04 12° 241° (WSW) 2,723 7.4 -38.2°
Maximum altitude 06:16:50 18° 206° (SSW) 2,270 - -38.7°
Drops below altitude 10° 06:21:06 10° 165° (SSE) 2,734 - -39.2°
Sets 06:24:35 0° 147° (SSE) 3,633 - -39.7°
